Wind_Speed
9 10 10 8 7 8 7 7 9 9 11 14 17 8 5 5 4 4 5 6 6 7 8 11 13 14 16 18 19 20 22 23 24 24 25 25 26 28 29 30 30 31 32 33
8 11 12 12 10 9 9 10 10 10 10 12 14 16 7 8 7 7 6 7 8 9 10 11 13 15 17 19 20 22 24 24 24 25 26 26 27 28 29 30 31 32 32 33
8 9 12 13 12 12 11 12 13 13 12 11 11 12 12 11 10 8 8 10 11 11 12 14 17 19 19 20 21 22 24 24 24 25 25 26 27 28 30 30 31 32 33 33
8 9 10 13 15 15 15 15 15 14 15 14 13 12 12 12 12 10 10 10 12 14 15 16 18 20 20 20 21 22 24 24 23 24 25 26 27 28 30 30 31 33 33 33
8 9 10 11 13 17 18 18 18 17 17 17 18 17 15 13 11 12 12 12 14 16 18 18 17 18 20 22 21 23 23 23 21 23 24 25 26 28 29 30 31 32 33 34
7 8 9 11 13 15 17 20 21 21 21 19 19 20 18 18 16 14 12 11 12 13 14 15 16 17 18 19 19 20 21 20 20 21 23 25 26 27 29 30 31 32 32 33
10 10 11 11 13 14 16 19 21 22 23 23 22 22 20 22 21 20 19 17 15 15 15 15 16 16 17 18 18 19 20 20 20 21 22 24 26 27 29 30 31 31 32 33
13 14 13 14 14 15 16 18 20 22 23 24 26 25 22 23 25 25 24 24 22 20 20 20 19 19 18 17 18 19 19 20 19 20 20 21 23 26 28 29 30 32 33 34
13 15 16 16 16 17 17 18 20 21 22 24 23 24 25 24 25 26 27 28 27 25 26 25 23 21 21 21 19 19 19 20 20 19 20 20 21 23 26 28 30 32 33 34
15 15 18 18 19 19 18 19 21 23 24 21 22 23 24 26 28 29 30 31 31 30 28 29 28 26 24 24 23 22 21 20 20 20 20 20 19 20 22 25 27 30 32 34
20 18 19 19 21 20 20 19 21 23 24 25 21 23 22 25 27 29 33 35 34 33 32 31 32 32 30 28 26 25 23 22 21 20 20 21 20 20 20 22 25 28 30 33
26 23 21 23 22 24 20 23 23 24 24 23 24 19 23 27 29 30 32 35 34 34 34 35 34 34 34 32 31 29 26 23 23 22 21 21 21 21 21 22 24 26 29 32
27 27 27 26 26 26 26 24 24 27 26 21 26 21 28 25 28 32 29 30 31 30 34 36 37 36 36 35 33 32 31 28 24 23 23 22 22 21 21 22 24 26 28 30
32 29 29 27 32 31 29 27 31 30 26 28 25 20 22 25 30 29 25 29 29 31 33 35 34 35 36 37 33 35 35 34 29 25 25 24 23 24 22 22 24 26 28 29
35 34 36 31 32 37 34 27 31 32 31 36 21 22 24 29 27 26 26 29 32 34 34 35 35 33 34 36 37 35 36 37 35 29 28 28 25 25 24 24 25 26 28 30
39 39 40 39 37 42 45 26 30 34 32 36 35 23 34 29 29 27 26 29 30 35 36 34 35 33 32 33 36 35 34 36 36 33 32 31 29 27 27 26 26 27 28 29
43 44 46 46 42 46 48 29 31 35 34 36 38 33 33 32 30 30 31 33 32 35 37 35 36 34 30 31 33 35 34 34 34 35 35 35 32 30 30 29 28 28 29 30
45 45 48 50 51 50 48 32 33 35 31 34 39 38 38 35 33 33 38 38 35 35 38 35 35 37 34 31 32 33 36 35 35 35 36 36 35 34 33 33 32 31 31 31
47 47 49 53 53 53 51 37 37 38 33 31 40 39 39 38 36 37 41 41 39 38 37 40 39 40 39 31 31 34 35 35 36 35 37 36 36 36 37 36 35 34 34 34
48 49 50 53 55 56 49 40 34 39 40 37 38 39 37 35 36 38 39 39 39 40 41 40 41 42 41 39 33 32 35 36 35 33 37 37 37 38 39 39 37 37 37 37
50 50 53 53 58 57 45 44 45 40 38 39 39 38 35 37 38 40 41 41 40 39 39 41 41 43 45 43 42 38 36 35 38 37 37 38 39 38 39 39 39 39 39 39
54 55 53 55 59 58 47 42 43 43 43 41 41 39 38 39 40 42 42 43 42 42 42 42 41 43 45 45 44 43 42 38 35 36 39 39 40 39 40 38 38 39 39 40
57 56 57 60 59 55 45 42 41 40 40 41 42 39 37 39 40 41 42 42 45 44 46 46 43 41 44 47 45 44 46 44 40 36 36 40 40 40 38 38 37 38 39 39
58 60 61 60 56 46 42 38 39 43 42 39 36 34 35 35 37 40 41 39 43 47 45 46 47 44 43 48 47 45 46 46 45 40 36 36 39 41 40 37 36 36 38 38
59 62 59 61 54 44 41 39 38 39 39 39 39 38 38 38 39 40 41 41 43 46 47 48 46 46 47 47 48 46 46 46 45 46 39 36 35 35 38 42 42 41 39 38
56 58 59 58 50 48 44 39 40 37 39 44 44 42 40 39 39 40 40 42 41 44 46 43 46 48 48 50 49 47 49 47 46 43 40 40 38 35 34 35 37 42 43 42
Wind_Direction
255 257 267 280 296 288 293 299 316 340 358 10 16 342 324 330 330 339 340 343 335 343 345 354 356 350 346 347 347 348 350 354 356 354 353 351 349 348 348 349 348 348 350 350
281 267 264 268 274 289 291 291 288 300 328 349 3 11 339 324 317 313 315 317 327 313 327 333 340 339 336 337 341 345 346 347 349 349 347 347 347 346 346 346 347 348 349 352
313 295 274 267 270 275 281 280 285 286 298 316 338 356 12 355 334 318 307 303 305 309 308 317 321 324 327 331 335 337 340 341 339 343 344 346 345 344 345 346 347 347 348 350
320 319 299 282 274 273 277 283 282 283 286 292 302 319 341 359 1 343 317 303 299 301 306 308 311 314 319 323 326 331 333 335 335 338 342 343 344 344 345 345 347 347 348 348
330 320 317 300 288 280 278 280 282 284 284 286 290 298 308 319 333 347 350 332 316 309 308 311 317 319 319 321 325 328 329 332 335 337 339 341 342 342 343 344 345 346 349 348
345 330 317 307 301 294 288 282 282 282 284 284 285 287 293 298 305 312 318 325 330 330 330 331 331 330 329 328 331 331 332 335 335 336 338 339 340 341 343 344 345 347 350 349
347 342 330 323 312 303 298 294 290 285 283 284 284 283 286 288 292 295 296 299 306 314 316 322 330 336 340 336 332 332 332 333 333 335 338 339 341 343 345 347 348 349 349 348
333 335 331 328 327 319 311 303 299 298 295 289 285 284 284 282 284 287 287 290 294 299 302 308 313 319 324 332 335 332 330 330 329 331 333 336 341 344 346 349 349 350 350 349
322 321 322 324 326 324 322 316 308 304 303 302 294 290 283 283 283 281 281 283 285 286 289 293 297 302 310 316 320 325 327 327 326 326 328 331 338 343 347 350 351 350 350 350
316 317 316 318 318 318 317 316 313 312 314 316 309 300 294 288 281 279 279 279 280 281 281 283 284 288 292 298 307 312 316 320 322 322 322 324 330 338 343 347 349 350 350 351
316 316 311 311 310 306 309 308 307 309 313 317 317 308 305 292 285 282 279 279 279 281 283 279 280 284 285 286 290 297 302 308 313 313 315 317 320 328 334 339 344 349 351 351
319 321 314 310 307 306 305 301 303 306 306 312 312 329 308 295 297 292 289 284 285 284 280 279 279 280 281 281 283 286 288 293 300 305 306 307 310 316 323 329 335 342 348 349
314 319 317 314 306 305 305 301 300 301 305 307 300 326 301 306 296 291 297 300 296 288 283 278 278 277 279 280 279 280 281 283 288 292 296 298 300 303 311 319 325 332 339 344
306 311 311 314 308 307 302 302 305 305 308 293 312 304 303 299 288 298 309 307 301 295 288 284 282 280 276 277 278 277 277 279 281 282 285 288 291 294 300 308 315 323 330 335
305 307 306 309 309 305 300 305 302 305 301 302 305 306 298 286 285 292 296 303 305 304 300 294 287 285 284 279 277 275 276 277 277 277 275 279 283 287 292 299 306 314 321 327
302 305 303 303 305 300 296 314 298 295 300 303 301 312 281 295 285 284 288 297 301 304 303 301 295 288 288 286 281 277 271 275 278 273 271 273 276 280 283 289 296 305 312 319
297 301 301 299 300 296 297 308 300 292 292 296 298 297 290 289 284 277 280 289 292 302 301 304 303 298 291 288 286 282 279 275 273 272 270 269 271 276 279 283 288 295 302 310
292 296 296 295 294 293 296 311 299 291 287 288 292 292 289 291 289 283 282 288 291 297 298 301 304 305 300 293 291 291 287 282 277 273 271 270 271 273 276 279 283 288 294 300
290 291 293 290 291 289 292 310 300 292 290 284 281 281 286 291 293 288 288 289 291 291 294 297 298 302 304 300 292 287 285 284 282 280 279 274 270 270 273 275 278 283 288 294
288 287 289 290 289 284 296 304 293 289 297 284 282 284 286 287 290 289 288 290 290 291 292 292 293 296 299 304 303 298 287 284 284 279 280 279 276 272 271 272 275 278 283 288
282 285 285 287 289 285 300 295 295 296 288 292 287 285 286 286 289 294 295 293 291 289 289 290 292 294 298 299 300 304 304 296 286 284 280 280 280 276 276 276 275 277 279 284
278 281 284 286 284 286 291 295 292 288 290 289 288 289 288 286 289 293 293 290 290 289 287 287 290 293 293 295 296 297 299 302 301 291 285 281 280 283 279 278 277 278 279 281
278 281 280 280 283 285 295 293 290 289 288 288 291 294 293 290 289 290 292 289 289 291 291 292 292 290 290 290 292 292 294 298 301 303 298 288 283 279 281 284 282 281 281 280
275 278 277 278 280 287 289 288 284 284 289 291 291 288 289 293 292 290 290 290 288 287 289 293 294 289 288 289 290 289 290 293 297 299 303 302 292 287 283 281 283 285 285 284
271 273 276 276 282 283 282 283 280 282 284 286 286 289 291 292 294 291 286 286 285 284 284 287 289 292 290 288 290 291 289 289 290 294 297 299 298 297 292 287 283 280 281 286
272 275 276 278 280 278 278 280 282 280 279 278 283 287 289 291 293 295 291 286 290 287 284 281 284 286 287 286 286 288 288 289 287 288 290 293 295 294 295 294 292 289 282 279
Height
5888 5889 5889 5889 5889 5889 5888 5888 5887 5885 5883 5881 5879 5877 5876 5874 5873 5872 5871 5869 5868 5865 5863 5861 5858 5855 5852 5850 5847 5843 5839 5834 5829 5825 5821 5816 5812 5807 5803 5798 5793 5789 5783 5777
5887 5886 5887 5887 5887 5887 5887 5887 5886 5885 5883 5882 5879 5877 5876 5874 5873 5871 5870 5869 5867 5865 5863 5860 5858 5855 5852 5849 5846 5841 5837 5833 5828 5824 5820 5815 5810 5805 5801 5796 5791 5786 5780 5775
5884 5884 5884 5884 5884 5885 5884 5885 5885 5884 5882 5881 5880 5878 5876 5874 5872 5871 5869 5868 5865 5863 5862 5859 5856 5854 5851 5847 5844 5840 5836 5832 5827 5823 5818 5814 5809 5804 5799 5794 5789 5784 5778 5772
5882 5881 5882 5881 5882 5882 5882 5882 5881 5881 5880 5879 5878 5878 5875 5874 5871 5869 5868 5866 5864 5862 5860 5857 5854 5852 5849 5845 5842 5838 5834 5830 5826 5821 5816 5811 5807 5802 5797 5792 5787 5780 5775 5770
5883 5881 5880 5879 5879 5879 5879 5878 5878 5877 5876 5876 5875 5875 5874 5872 5871 5869 5867 5864 5862 5860 5858 5855 5852 5848 5846 5842 5839 5835 5831 5827 5823 5819 5814 5809 5805 5800 5794 5789 5784 5778 5773 5767
5880 5879 5878 5877 5876 5875 5875 5874 5874 5873 5872 5873 5872 5871 5871 5869 5868 5867 5865 5863 5861 5858 5855 5853 5849 5846 5843 5839 5836 5832 5829 5824 5820 5816 5811 5807 5802 5797 5792 5787 5781 5776 5770 5764
5880 5878 5876 5875 5874 5872 5871 5870 5869 5870 5868 5868 5867 5867 5867 5865 5863 5863 5862 5860 5858 5855 5853 5850 5847 5844 5841 5837 5834 5830 5825 5821 5817 5813 5809 5804 5800 5795 5790 5785 5779 5773 5768 5762
5880 5878 5876 5874 5872 5870 5868 5867 5865 5863 5863 5863 5862 5862 5862 5859 5858 5858 5856 5855 5854 5852 5849 5846 5843 5841 5838 5835 5831 5827 5823 5819 5814 5810 5806 5802 5798 5793 5788 5783 5777 5771 5765 5759
5877 5876 5874 5872 5871 5870 5867 5864 5862 5859 5859 5857 5857 5856 5854 5854 5852 5851 5849 5848 5847 5845 5844 5842 5839 5836 5833 5831 5828 5824 5820 5816 5811 5807 5803 5799 5795 5790 5786 5780 5775 5769 5763 5756
5875 5874 5871 5870 5868 5867 5865 5863 5860 5856 5854 5853 5851 5849 5848 5847 5846 5844 5842 5840 5838 5837 5836 5834 5832 5830 5828 5825 5823 5820 5816 5812 5808 5804 5800 5796 5791 5787 5782 5777 5772 5767 5761 5754
5870 5871 5870 5867 5864 5862 5861 5858 5856 5854 5851 5849 5847 5845 5843 5839 5838 5837 5834 5832 5832 5831 5829 5826 5824 5822 5821 5818 5816 5813 5811 5808 5804 5800 5796 5792 5788 5783 5779 5774 5769 5764 5758 5752
5866 5867 5865 5863 5861 5858 5857 5854 5852 5850 5849 5845 5843 5844 5837 5833 5831 5828 5826 5823 5823 5822 5819 5817 5815 5813 5812 5810 5809 5806 5803 5801 5798 5795 5791 5787 5784 5779 5775 5771 5766 5761 5756 5750
5862 5861 5860 5858 5857 5854 5851 5849 5846 5843 5841 5842 5837 5839 5830 5829 5825 5821 5818 5815 5815 5812 5809 5806 5804 5803 5801 5801 5800 5798 5796 5793 5791 5789 5785 5782 5778 5774 5771 5766 5762 5757 5752 5747
5855 5854 5852 5853 5848 5847 5846 5845 5840 5837 5835 5832 5832 5830 5828 5824 5818 5815 5813 5809 5806 5804 5801 5799 5796 5793 5792 5791 5790 5789 5787 5785 5783 5781 5778 5775 5772 5769 5765 5761 5757 5753 5749 5744
5850 5850 5845 5845 5842 5836 5837 5839 5834 5831 5829 5822 5827 5823 5821 5816 5813 5810 5807 5804 5801 5795 5792 5789 5786 5783 5783 5781 5779 5778 5777 5776 5775 5773 5770 5768 5766 5762 5759 5756 5752 5748 5744 5739
5844 5843 5840 5838 5835 5828 5821 5835 5828 5823 5822 5817 5813 5817 5806 5808 5805 5804 5801 5798 5794 5789 5785 5781 5779 5775 5773 5772 5771 5769 5767 5766 5766 5764 5762 5760 5758 5755 5752 5749 5746 5742 5738 5734
5838 5836 5832 5829 5827 5820 5817 5826 5821 5815 5813 5810 5805 5806 5802 5799 5796 5795 5792 5790 5787 5783 5779 5774 5771 5768 5765 5763 5762 5760 5759 5758 5756 5755 5753 5751 5750 5748 5745 5742 5739 5735 5732 5728
5829 5828 5824 5821 5818 5809 5811 5818 5812 5806 5807 5801 5796 5794 5790 5789 5787 5786 5783 5781 5780 5777 5772 5769 5764 5761 5758 5755 5754 5753 5751 5749 5748 5746 5743 5742 5742 5739 5737 5735 5732 5729 5725 5722
5819 5817 5814 5809 5808 5803 5799 5807 5802 5796 5797 5794 5785 5785 5782 5780 5778 5777 5775 5773 5771 5768 5765 5762 5758 5755 5752 5748 5746 5744 5742 5741 5739 5738 5737 5734 5732 5730 5728 5726 5724 5722 5718 5715
5810 5807 5803 5800 5796 5789 5795 5795 5791 5786 5786 5782 5779 5776 5774 5773 5771 5768 5766 5764 5761 5759 5757 5754 5750 5747 5745 5742 5737 5735 5734 5731 5731 5728 5727 5725 5723 5721 5718 5716 5715 5713 5710 5707
5796 5794 5789 5787 5783 5781 5788 5782 5780 5779 5776 5771 5768 5767 5766 5765 5763 5760 5758 5755 5751 5748 5745 5743 5742 5739 5737 5735 5730 5727 5725 5723 5722 5720 5718 5716 5714 5712 5710 5708 5706 5703 5702 5699
5783 5779 5779 5776 5769 5769 5774 5772 5771 5767 5764 5761 5759 5757 5756 5754 5753 5750 5747 5744 5741 5739 5736 5733 5730 5729 5727 5725 5722 5718 5715 5714 5712 5710 5708 5706 5705 5703 5701 5698 5696 5694 5692 5690
5769 5769 5765 5761 5760 5761 5763 5759 5758 5756 5754 5752 5750 5748 5746 5744 5741 5739 5737 5735 5733 5730 5728 5726 5723 5718 5715 5714 5712 5709 5706 5703 5702 5700 5698 5696 5695 5693 5692 5690 5688 5685 5683 5681
5756 5753 5749 5747 5749 5753 5750 5749 5747 5745 5743 5742 5741 5738 5736 5734 5731 5729 5726 5724 5721 5719 5716 5715 5713 5710 5707 5702 5701 5700 5697 5694 5692 5690 5689 5687 5685 5683 5683 5681 5679 5677 5675 5672
5741 5737 5737 5734 5738 5740 5738 5736 5734 5734 5733 5730 5727 5726 5724 5721 5720 5716 5713 5711 5709 5707 5704 5702 5701 5699 5697 5692 5690 5689 5686 5684 5682 5680 5678 5677 5675 5673 5672 5671 5669 5667 5665 5663
5729 5725 5721 5723 5725 5725 5727 5725 5722 5722 5720 5717 5715 5714 5712 5710 5708 5704 5701 5699 5697 5694 5692 5690 5689 5687 5685 5681 5678 5676 5672 5671 5671 5670 5667 5665 5663 5662 5662 5660 5659 5657 5655 5653